TimeCST,TemperatureF,Dew PointF,Humidity,Sea Level PressureIn,VisibilityMPH,Wind Direction,Wind SpeedMPH,Gust SpeedMPH,PrecipitationIn,Events,Conditions,WindDirDegrees,DateUTC
12:15 AM,55.2,45.9,71,29.94,10.0,South,11.5,-,N/A,,Clear,170,2012-12-01 06:15:00
12:35 AM,55.8,46.4,71,29.94,10.0,South,12.7,-,N/A,,Clear,180,2012-12-01 06:35:00
12:55 AM,57.6,47.1,68,29.94,10.0,South,12.7,-,N/A,,Clear,190,2012-12-01 06:55:00
1:15 AM,58.3,47.5,67,29.94,10.0,SSW,11.5,-,N/A,,Clear,200,2012-12-01 07:15:00
1:35 AM,58.1,47.7,68,29.93,10.0,SSW,12.7,-,N/A,,Clear,200,2012-12-01 07:35:00
2:15 AM,58.5,47.8,68,29.93,10.0,SSW,11.5,-,N/A,,Clear,200,2012-12-01 08:15:00
2:35 AM,57.2,47.5,70,29.93,10.0,SSW,11.5,-,N/A,,Clear,200,2012-12-01 08:35:00
2:55 AM,56.5,47.3,71,29.93,10.0,South,10.4,-,N/A,,Clear,190,2012-12-01 08:55:00
3:15 AM,55.8,47.3,73,29.93,10.0,South,11.5,-,N/A,,Clear,180,2012-12-01 09:15:00
3:35 AM,55.8,47.5,74,29.93,10.0,South,15.0,-,N/A,,Clear,190,2012-12-01 09:35:00
3:55 AM,56.7,47.7,72,29.93,10.0,South,16.1,-,N/A,,Clear,190,2012-12-01 09:55:00
4:35 AM,57.2,48.2,72,29.91,10.0,South,16.1,-,N/A,,Clear,190,2012-12-01 10:35:00
4:55 AM,56.8,48.4,73,29.92,10.0,SSW,16.1,-,N/A,,Clear,200,2012-12-01 10:55:00
5:35 AM,57.4,49.3,74,29.92,10.0,SSW,15.0,-,N/A,,Clear,200,2012-12-01 11:35:00
5:55 AM,57.0,49.5,76,29.92,10.0,SSW,12.7,-,N/A,,Clear,200,2012-12-01 11:55:00
6:35 AM,56.5,50.0,79,29.93,10.0,SW,12.7,-,N/A,,Clear,220,2012-12-01 12:35:00
6:55 AM,55.8,49.8,80,29.93,10.0,SW,11.5,-,N/A,,Clear,230,2012-12-01 12:55:00
7:15 AM,54.5,49.3,83,29.93,10.0,SSW,12.7,-,N/A,,Clear,210,2012-12-01 13:15:00
7:35 AM,55.0,50.2,84,29.92,10.0,SSW,13.8,-,N/A,,Clear,210,2012-12-01 13:35:00
7:55 AM,55.6,50.7,84,29.92,7.0,SSW,15.0,-,N/A,,Clear,200,2012-12-01 13:55:00
8:15 AM,55.6,51.3,85,29.93,7.0,SSW,17.3,-,N/A,,Clear,200,2012-12-01 14:15:00
8:35 AM,56.8,52.2,84,29.93,10.0,SSW,17.3,-,N/A,,Clear,200,2012-12-01 14:35:00
8:55 AM,58.5,53.1,82,29.93,10.0,SSW,19.6,25.3,N/A,,Clear,200,2012-12-01 14:55:00
9:15 AM,59.7,53.4,80,29.92,10.0,SSW,20.7,26.5,N/A,,Clear,200,2012-12-01 15:15:00
9:35 AM,61.3,53.8,76,29.93,10.0,SSW,24.2,28.8,N/A,,Clear,210,2012-12-01 15:35:00
9:55 AM,63.3,53.8,71,29.93,10.0,SSW,26.5,34.5,N/A,,Clear,210,2012-12-01 15:55:00
10:15 AM,64.9,53.6,67,29.93,10.0,SSW,23.0,32.2,N/A,,Clear,210,2012-12-01 16:15:00
10:35 AM,66.4,52.9,62,29.93,10.0,SW,21.9,29.9,N/A,,Clear,220,2012-12-01 16:35:00
10:55 AM,68.5,52.2,56,29.93,10.0,SSW,20.7,28.8,N/A,,Clear,210,2012-12-01 16:55:00
11:15 AM,70.7,50.7,49,29.93,10.0,SSW,21.9,-,N/A,,Clear,210,2012-12-01 17:15:00
11:35 AM,72.1,49.1,44,29.92,10.0,SW,19.6,-,N/A,,Clear,220,2012-12-01 17:35:00
11:55 AM,73.8,46.8,38,29.92,10.0,SW,24.2,29.9,N/A,,Clear,230,2012-12-01 17:55:00
12:15 PM,75.0,44.6,34,29.91,10.0,SW,23.0,28.8,N/A,,Clear,220,2012-12-01 18:15:00
12:35 PM,77.5,41.7,28,29.89,10.0,SW,23.0,28.8,N/A,,Clear,220,2012-12-01 18:35:00
12:55 PM,78.6,41.7,27,29.88,10.0,SSW,23.0,27.6,N/A,,Clear,210,2012-12-01 18:55:00
1:15 PM,79.9,41.4,25,29.88,10.0,SW,23.0,27.6,N/A,,Clear,220,2012-12-01 19:15:00
1:35 PM,81.1,38.8,22,29.87,10.0,SW,21.9,-,N/A,,Clear,220,2012-12-01 19:35:00
1:55 PM,81.7,38.8,22,29.86,10.0,SSW,24.2,29.9,N/A,,Clear,210,2012-12-01 19:55:00
2:15 PM,82.8,37.4,20,29.85,10.0,SW,25.3,28.8,N/A,,Clear,230,2012-12-01 20:15:00
2:35 PM,83.5,36.7,19,29.85,10.0,SW,23.0,28.8,N/A,,Clear,230,2012-12-01 20:35:00
2:55 PM,84.0,35.2,17,29.84,10.0,SSW,23.0,27.6,N/A,,Clear,200,2012-12-01 20:55:00
3:15 PM,84.2,34.0,17,29.84,10.0,SW,23.0,27.6,N/A,,Clear,220,2012-12-01 21:15:00
3:35 PM,84.4,34.2,17,29.85,10.0,SSW,21.9,26.5,N/A,,Clear,210,2012-12-01 21:35:00
3:55 PM,84.0,33.6,16,29.85,10.0,SW,20.7,-,N/A,,Clear,220,2012-12-01 21:55:00
4:15 PM,83.3,34.5,17,29.84,10.0,SSW,18.4,-,N/A,,Clear,210,2012-12-01 22:15:00
4:35 PM,82.9,34.9,18,29.84,10.0,SSW,17.3,23.0,N/A,,Clear,200,2012-12-01 22:35:00
4:55 PM,81.5,36.0,19,29.84,10.0,SSW,18.4,-,N/A,,Clear,200,2012-12-01 22:55:00
5:15 PM,80.4,36.5,21,29.84,10.0,SSW,13.8,20.7,N/A,,Clear,200,2012-12-01 23:15:00
5:35 PM,78.6,36.0,21,29.85,10.0,SSW,12.7,-,N/A,,Clear,200,2012-12-01 23:35:00
5:55 PM,76.8,36.7,23,29.86,10.0,SSW,11.5,-,N/A,,Clear,200,2012-12-01 23:55:00
6:15 PM,76.1,36.1,23,29.86,10.0,SW,13.8,-,N/A,,Clear,220,2012-12-02 00:15:00
6:35 PM,72.7,35.8,26,29.87,10.0,SW,9.2,-,N/A,,Clear,220,2012-12-02 00:35:00
6:55 PM,70.2,35.4,28,29.88,10.0,SSW,8.1,-,N/A,,Clear,210,2012-12-02 00:55:00
7:15 PM,68.9,35.2,29,29.89,10.0,WSW,6.9,-,N/A,,Clear,240,2012-12-02 01:15:00
7:35 PM,68.7,34.9,29,29.89,10.0,WSW,8.1,-,N/A,,Clear,240,2012-12-02 01:35:00
8:15 PM,66.4,33.1,29,29.90,10.0,SW,10.4,-,N/A,,Clear,220,2012-12-02 02:15:00
8:35 PM,64.4,32.7,31,29.91,10.0,SW,9.2,-,N/A,,Clear,220,2012-12-02 02:35:00
8:55 PM,62.2,32.2,32,29.91,10.0,SSW,10.4,-,N/A,,Clear,210,2012-12-02 02:55:00
9:15 PM,60.1,32.0,35,29.91,10.0,SW,6.9,-,N/A,,Clear,220,2012-12-02 03:15:00
9:35 PM,59.2,32.2,36,29.92,10.0,SW,9.2,-,N/A,,Clear,220,2012-12-02 03:35:00
9:55 PM,58.3,32.7,38,29.93,10.0,SSW,10.4,-,N/A,,Clear,210,2012-12-02 03:55:00
10:15 PM,57.9,32.7,39,29.94,10.0,West,9.2,-,N/A,,Clear,260,2012-12-02 04:15:00
10:35 PM,55.4,31.8,41,29.94,10.0,WSW,10.4,-,N/A,,Clear,250,2012-12-02 04:35:00
10:55 PM,55.9,31.3,39,29.96,10.0,West,10.4,-,N/A,,Clear,270,2012-12-02 04:55:00
11:15 PM,53.6,30.4,41,29.96,10.0,WNW,9.2,-,N/A,,Clear,300,2012-12-02 05:15:00
11:35 PM,54.1,28.4,37,29.97,10.0,NNW,8.1,-,N/A,,Clear,340,2012-12-02 05:35:00
11:55 PM,54.0,27.9,37,29.97,10.0,North,5.8,-,N/A,,Clear,350,2012-12-02 05:55:00